Location: Cointrin
(46.2167°N, 6.1167°E)
Time: 02:31:29
(UTC+00:00)

Tiangong - Pass Details

Date: 12 June 2023
Orbit: 372 x 384 km, 41.5° (Epoch: 01 October)

Event Time Altitude Azimuth Distance (km) Brightness Sun altitude
Exits shadow 01:25:31 16° 135° (SE) 1,071 -0.1 -16.3°
Drops below altitude 10° 01:26:26 10° 125° (SE) 1,391 0.6 -16.2°
Sets 01:28:41 0° 114° (ESE) 2,264 1.8 -16.1°
